User: anonymous   Login
Location: Ago
(8.4667°N, 4.4167°E)
Time: 20:01:19
(UTC+00:00)
Language:

Cosmos 1743 - Orbit

View from above orbital plane
View from above orbital plane
View from above satellite
View from above satellite

Ground track
Ground track

The orbit data is extracted from the following two-line orbital elements,

1 16719U 86034A   21169.62669387  .00000620  00000-0  30541-4 0  9996
2 16719  82.5514 358.3489 0010309 252.4180 174.6425 15.16067250916903
Epoch (UTC): 18 June 2021 15:02:26
Eccentricity: 0.0010309
inclination: 82.5514°
perigee height: 510 km
apogee height: 525 km
right ascension of ascending node: 358.3489°
argument of perigee: 252.4180°
revolutions per day: 15.16067250
mean anomaly at epoch: 174.6425°
orbit number at epoch: 91690

The dashed part of the orbit path shows where the satellite is in the earth's shadow,  

DLR